Location: Pettit
(39.0209°N, 79.7181°W)
Time: 04:40:23
(UTC+00:00)

ISS - Pass Details

Date: 25 April 2026
Orbit: 414 x 424 km, 51.6° (Epoch: 15 May)

Event Time Altitude Azimuth Distance (km) Brightness Sun altitude
Exits shadow 08:57:30 12° 309° (NW) 1,399 -1.3 -16.7°
Maximum altitude 08:59:10 15° 341° (NNW) 1,213 -1.3 -16.5°
Drops below altitude 10° 09:01:17 10° 20° (NNE) 1,503 -0.2 -16.1°
Sets 09:04:02 0° 44° (NE) 2,372 1.7 -15.7°
